1342656032003,3.72874
1342656092003,3.71447
1342656152003,3.75017
1342656212003,3.76817
1342656272003,3.83535
1342656332003,3.86495
1342656392003,3.88560
1342656452003,3.88631
1342656512003,3.87142
1342656572003,3.88646
1342656632003,3.91075
1342656692003,3.84706
1342656752003,3.85744
1342656812003,3.81094
1342656872003,3.78962
1342656932003,3.76358
1342656992003,3.72109
1342657052003,3.71559
1342657112003,3.73002
1342657172003,3.74724
1342657232003,3.71609
1342657292003,3.70861
1342657352003,3.67528
1342657412003,3.72102
1342657472003,3.70165
1342657532003,3.69134
1342657592003,3.69422
1342657652003,3.68656
1342657712003,3.69337
1342657772003,3.68700
1342657832003,3.69743
1342657892003,3.69029
1342657952003,3.69326
1342658012003,3.71033
1342658072003,3.70330
1342658132003,3.69003
1342658192003,3.68659
1342658252003,3.66996
1342658312003,3.69243
1342658372003,3.69918
1342658432003,3.68749
1342658492003,3.70697
1342658552003,3.63597
1342658612003,3.67681
1342658672003,3.66817
1342658732003,3.67794
1342658792003,3.67524
1342658852003,3.64322
1342658912003,3.66657
1342658972003,3.67720
1342659032003,3.64306
1342659092003,3.65548
1342659152003,3.66554
1342659212003,3.68220
1342659272003,3.66161
1342659332003,3.67834
1342659392003,3.63205
1342659452003,3.66463
1342659512003,3.64150
1342659572003,3.67925
1342659632013,3.62547
1342659692013,3.66949
1342659752013,3.66166
1342659812013,3.63453
1342659872013,3.61868
1342659932013,3.68848
1342659992013,3.64021
1342660052013,3.64020
1342660112013,3.66471
1342660172013,3.65778
1342660232013,3.66058
1342660292013,3.62855
1342660352013,3.64210
1342660412013,3.65568
1342660472013,3.63851
1342660532013,3.68898
1342660592013,3.66233
1342660652013,3.65332
1342660712013,3.61092
1342660772013,3.63428
1342660832013,3.67425
1342660892013,3.66141
1342660952013,3.68056
1342661012013,3.64646
1342661072013,3.69577
1342661132013,3.69510
1342661192013,3.68759
1342661252013,3.70429
1342661312013,3.69885
1342661372013,3.68767
1342661432013,3.67261
1342661492013,3.67044
1342661552013,3.68601
1342661612013,3.70362
1342661672013,3.71416
1342661732013,3.75596
1342661792013,3.75754
1342661852013,3.78496
1342661912013,3.77431
1342661972013,3.70802
1342662032013,3.69653
1342662092013,3.70957
1342662152013,3.72237
1342662212013,3.69834
1342662272013,3.69993
1342662332013,3.70094
1342662392013,3.70252
1342662452013,3.65540
1342662512013,3.72387
1342662572013,3.70516
1342662632013,3.67042
1342662692013,3.63792
1342662752013,3.68484
1342662812013,3.66153
1342662872013,3.66137
1342662932013,3.62896
1342662992013,3.65671
1342663052013,3.64632
1342663112013,3.62670
1342663172013,3.64159
1342663232022,3.63625
1342663292022,3.65797
1342663352022,3.67176
1342663412022,3.63493
1342663472022,3.64712
1342663532022,3.61443
1342663592022,3.64078
1342663652022,3.60153
1342663712022,3.63238
1342663772022,3.66706
1342663832022,3.61328
1342663892022,3.62153
1342663952022,3.64245
1342664012022,3.63182
1342664072022,3.63908
1342664132022,3.61527
1342664192022,3.62127
1342664252022,3.63182
1342664312022,3.59073
1342664372022,3.65981
1342664432022,3.63866
1342664492022,3.66198
1342664552022,3.60890
1342664612022,3.60067
1342664672022,3.63955
1342664732022,3.60536
1342664792022,3.61448
1342664852022,3.63172
1342664912022,3.59513
1342664972022,3.62438
1342665032022,3.63470
1342665092022,3.59484
1342665152022,3.62795
1342665212022,3.60616
1342665272022,3.64324
1342665332022,3.58669
1342665392022,3.59423
1342665452022,3.61444
1342665512022,3.61074
1342665572022,3.60849
1342665632022,3.56841
1342665692022,3.61029
1342665752022,3.58708
1342665812022,3.59798
1342665872022,3.63397
1342665932022,3.60093
1342665992022,3.62801
1342666052022,3.61325
1342666112022,3.59691
1342666172022,3.61469
1342666232022,3.59646
1342666292022,3.59551
1342666352022,3.61628
1342666412022,3.60511
1342666472022,3.58013
1342666532022,3.63281
1342666592022,3.60126
1342666652022,3.62829
1342666712022,3.60863
1342666772022,3.59686
1342666832032,3.61908
1342666892032,3.58357
1342666952032,3.62233
1342667012032,3.62908
1342667072032,3.64762
1342667132032,3.60333
1342667192032,3.59450
1342667252032,3.63743
1342667312032,3.63255
1342667372032,3.64088
1342667432032,3.60697
1342667492032,3.62964
1342667552032,3.61552
1342667612032,3.63658
1342667672032,3.62461
1342667732032,3.64911
1342667792032,3.62330
1342667852032,3.63665
1342667912032,3.59699
1342667972032,3.63489
1342668032032,3.62434
1342668092032,3.61078
1342668152032,3.62350
1342668212032,3.62547
1342668272032,3.61165
1342668332032,3.61756
1342668392032,3.65820
1342668452032,3.63917
1342668512032,3.65252
1342668572032,3.63724
1342668632032,3.63366
1342668692032,3.63487
1342668752032,3.63892
1342668812032,3.60237
1342668872032,3.59969
1342668932032,3.60155
1342668992032,3.61968
1342669052032,3.61129
1342669112032,3.64225
1342669172032,3.60948
1342669232032,3.62546
1342669292032,3.62087
1342669352032,3.60759
1342669412032,3.64008
1342669472032,3.62852
1342669532032,3.63276
1342669592032,3.62006
1342669652032,3.65105
1342669712032,3.62150
1342669772032,3.63150
1342669832032,3.63210
1342669892032,3.65973
1342669952032,3.61520
1342670012032,3.63784
1342670072032,3.64795
1342670132032,3.62244
1342670192032,3.63792
1342670252032,3.65034
1342670312032,3.62944
1342670372032,3.62167
1342670432041,3.63121
1342670492041,3.60838
1342670552041,3.60375
1342670612041,3.63711
1342670672041,3.63516
1342670732041,3.62951
1342670792041,3.62660
1342670852041,3.62157
1342670912041,3.64147
1342670972041,3.61760
1342671032041,3.60508
1342671092041,3.63527
1342671152041,3.63671
1342671212041,3.61290
1342671272041,3.62422
1342671332041,3.63244
1342671392041,3.59963
1342671452041,3.60621
1342671512041,3.59911
1342671572041,3.63278
1342671632041,3.60199
1342671692041,3.60508
1342671752041,3.62957
1342671812041,3.62852
1342671872041,3.68347
1342671932041,3.58188
1342671992041,3.61253
1342672052041,3.61548
1342672112041,3.67673
1342672172041,3.63827
1342672232041,3.62629
1342672292041,3.67549
1342672352041,3.69886
1342672412041,3.68731
1342672472041,3.69996
1342672532041,3.70576
1342672592041,3.70229
1342672652041,3.71502
1342672712041,3.69269
1342672772041,3.75516
1342672832041,3.71965
1342672892041,3.72157
1342672952041,3.75211
1342673012041,3.76768
1342673072041,3.76212
1342673132041,3.77360
1342673192041,3.75819
1342673252041,3.75667
1342673312041,3.75808
1342673372041,3.75675
1342673432041,3.77855
1342673492041,3.78646
1342673552041,3.80768
1342673612041,3.84419
1342673672041,3.85280
1342673732041,3.86565
1342673792041,4.00410
1342673852041,3.91852
1342673912041,3.93056
1342673972041,3.89845
1342674032050,3.94596
1342674092050,3.96525
1342674152050,4.02632
1342674212050,4.04866
1342674272050,4.00752
1342674332050,4.03376
1342674392050,4.04142
1342674452050,4.08021
1342674512050,4.12407
1342674572050,4.13442
1342674632050,4.18652
1342674692050,4.20378
1342674752050,4.31755
1342674812050,4.34299
1342674872050,4.42024
1342674932050,4.52604
1342674992050,4.62974
1342675052050,4.79828
1342675112050,4.94478
1342675172050,5.17367
1342675232050,5.42096
1342675292050,5.72113
1342675352050,5.96345
1342675412050,6.28708
1342675472050,6.51182
1342675532050,6.84523
1342675592050,7.09931
1342675652050,7.37561
1342675712050,7.61793
1342675772050,7.84234
1342675832050,8.07625
1342675892050,8.25147
1342675952050,8.46637
1342676012050,8.61048
1342676072050,8.84163
1342676132050,8.99946
1342676192050,9.12433
1342676252050,9.28150
1342676312050,9.46142
1342676372050,9.61699
1342676432050,9.73441
1342676492050,9.88763
1342676552050,10.0157
1342676612050,10.1871
1342676672050,10.3322
1342676732050,10.4043
1342676792050,10.5269
1342676852050,10.6256
1342676912050,10.6817
1342676972050,10.7494
1342677032050,10.8720
1342677092050,10.9323
1342677152050,10.9883
1342677212050,11.1438
1342677272050,11.1667
1342677332050,11.2073
1342677392050,11.2403
1342677452050,11.3051
1342677512050,11.3162
1342677572050,11.4553
1342677632060,11.4523
1342677692060,11.4590
1342677752060,11.4268
1342677812060,11.5366
1342677872060,11.5554
1342677932059,11.5937
1342677992059,11.5979
1342678052059,11.5496
1342678112059,11.6385
1342678172059,11.6412
1342678232059,11.5792
1342678292059,11.6997
1342678352060,11.5684
1342678412060,11.6002
1342678472060,11.5467
1342678532060,11.5506
1342678592059,11.5762
1342678652060,11.5109
1342678712060,11.5536
1342678772060,11.5452
1342678832060,11.5592
1342678892060,11.5850
1342678952060,11.5431
1342679012060,11.5767
1342679072060,11.5733
1342679132060,11.4881
1342679192060,11.4468
1342679252059,11.4498
1342679312059,11.3807
1342679372059,11.3726
1342679432059,11.3119
1342679492059,11.2476
1342679552059,11.2693
1342679612059,11.1913
1342679672060,11.1098
1342679732060,11.0968
1342679792060,10.9697
1342679852060,10.9210
1342679912060,10.8589
1342679972059,10.8090
1342680032060,10.6396
1342680092060,10.5779
1342680152060,10.4887
1342680212060,10.4224
1342680272060,10.3405
1342680332060,10.2036
1342680392060,10.1444
1342680452060,10.0466
1342680512060,9.95686
1342680572060,9.83644
1342680632059,9.72785
1342680692059,9.63922
1342680752059,9.57116
1342680812059,9.49884
1342680872059,9.34729
1342680932059,9.24806
1342680992059,9.15339
1342681052060,9.06046
1342681112060,8.93355
1342681172060,8.87631
1342681232069,8.76330
1342681292069,8.73496
1342681352069,8.61096
1342681412069,8.55335
1342681472069,8.46992
1342681532069,8.38903
1342681592069,8.32736
1342681652069,8.25545
1342681712069,8.14956
1342681772069,8.04898
1342681832069,8.00241
1342681892069,7.93306
1342681952069,7.85682
1342682012069,7.78709
1342682072069,7.68749
1342682132069,7.68098
1342682192069,7.55486
1342682252069,7.54313
1342682312069,7.43447
1342682372069,7.36667
1342682432069,7.32815
1342682492069,7.24507
1342682552069,7.19664
1342682612069,7.10206
1342682672069,7.02099
1342682732069,6.97136
1342682792069,6.90976
1342682852069,6.88059
1342682912069,6.84508
1342682972069,6.80154
1342683032069,6.70871
1342683092069,6.68374
1342683152069,6.61298
1342683212069,6.52318
1342683272069,6.51013
1342683332069,6.47120
1342683392069,6.44981
1342683452069,6.38005
1342683512069,6.35325
1342683572069,6.32153
1342683632069,6.27555
1342683692069,6.23155
1342683752069,6.14621
1342683812069,6.16158
1342683872069,6.09935
1342683932069,6.06665
1342683992069,6.05118
1342684052069,6.05301
1342684112069,6.00401
1342684172069,5.96566
1342684232069,5.95018
1342684292069,5.89261
1342684352069,5.91288
1342684412069,5.89355
1342684472069,5.82667
1342684532069,5.81431
1342684592069,5.77257
1342684652069,5.74016
1342684712069,5.65343
1342684772069,5.70972
1342684832078,5.70641
1342684892078,5.67168
1342684952078,5.65320
1342685012078,5.61937
1342685072078,5.57109
1342685132078,5.52087
1342685192078,5.50536
1342685252078,5.51697
1342685312078,5.48137
1342685372078,5.47219
1342685432078,5.43026
1342685492078,5.39226
1342685552078,5.39200
1342685612078,5.34068
1342685672078,5.31914
1342685732078,5.33931
1342685792078,5.27786
1342685852078,5.22787
1342685912078,5.20672
1342685972078,5.18133
1342686032078,5.18509
1342686092078,5.15508
1342686152078,5.13058
1342686212078,5.12567
1342686272078,5.08217
1342686332078,5.06049
1342686392078,5.03316
1342686452078,5.05039
1342686512078,5.06547
1342686572078,5.03133
1342686632078,5.00933
1342686692078,4.95865
1342686752078,4.93875
1342686812078,4.96591
1342686872078,4.97337
1342686932078,4.91649
1342686992078,4.89248
1342687052078,4.85657
1342687112078,4.82540
1342687172078,4.93353
1342687232078,4.82075
1342687292078,4.84404
1342687352078,4.81676
1342687412078,4.77646
1342687472078,4.80020
1342687532078,4.82077
1342687592078,4.76894
1342687652078,4.76807
1342687712078,4.74086
1342687772078,4.74536
1342687832078,4.72764
1342687892078,4.72824
1342687952078,4.72709
1342688012078,4.67896
1342688072078,4.74323
1342688132078,4.67711
1342688192078,4.66503
1342688252078,4.64432
1342688312078,4.62879
1342688372078,4.66647
1342688432087,4.66845
1342688492087,4.63954
1342688552087,4.63869
1342688612087,4.64378
1342688672087,4.58700
1342688732087,4.61986
1342688792087,4.57117
1342688852087,4.59774
1342688912087,4.58023
1342688972087,4.53061
1342689032087,4.53405
1342689092087,4.56036
1342689152087,4.51524
1342689212087,4.53780
1342689272087,4.50567
1342689332087,4.52845
1342689392087,4.54010
1342689452087,4.51552
1342689512087,4.49362
1342689572087,4.45251
1342689632087,4.50511
1342689692087,4.49293
1342689752087,4.48572
1342689812087,4.47820
1342689872087,4.44533
1342689932087,4.51339
1342689992087,4.49681
1342690052087,4.48298
1342690112087,4.46327
1342690172087,4.45164
1342690232087,4.43608
1342690292087,4.45233
1342690352087,4.40059
1342690412087,4.41333
1342690472087,4.39751
1342690532087,4.38864
1342690592087,4.42859
1342690652087,4.40623
1342690712087,4.39179
1342690772087,4.37154
1342690832087,4.39860
1342690892087,4.36612
1342690952087,4.34559
1342691012087,4.37909
1342691072087,4.43934
1342691132087,4.34824
1342691192087,4.30537
1342691252087,4.30234
1342691312087,4.30967
1342691372087,4.30145
1342691432087,4.30176
1342691492087,4.28539
1342691552087,4.27852
1342691612087,4.28411
1342691672087,4.26081
1342691732087,4.27789
1342691792087,4.27873
1342691852087,4.25431
1342691912087,4.27588
1342691972087,4.25140
1342692032096,4.23072
1342692092096,4.19743
1342692152096,4.23093
1342692212096,4.18140
1342692272096,4.18816
1342692332096,4.19268
1342692392096,4.18635
1342692452096,4.19960
1342692512096,4.18930
1342692572096,4.16022
1342692632096,4.16415
1342692692096,4.15351
1342692752096,4.60955
1342692812096,4.18909
1342692872096,4.13497
1342692932096,4.10964
1342692992096,4.14507
1342693052096,4.11818
1342693112096,4.07254
1342693172096,4.11567
1342693232096,4.10474
1342693292096,4.08041
1342693352096,4.11322
1342693412096,4.10762
1342693472096,4.04208
1342693532096,4.06214
1342693592096,4.09609
1342693652096,4.04691
1342693712096,4.13619
1342693772096,4.06988
1342693832096,4.04292
1342693892096,4.06480
1342693952096,4.05132
1342694012096,4.03419
1342694072096,4.03685
1342694132096,4.04133
1342694192096,4.06763
1342694252096,4.02422
1342694312096,4.05110
1342694372096,4.02646
1342694432096,4.01030
1342694492096,3.99092
1342694552096,4.01018
1342694612096,3.98685
1342694672096,4.02687
1342694732096,4.03612
1342694792096,3.98351
1342694852096,3.97354
1342694912096,3.99078
1342694972096,3.99242
1342695032096,3.97615
1342695092096,4.02583
1342695152096,4.04717
1342695212096,4.01137
1342695272096,4.02311
1342695332096,3.99023
1342695392096,4.01021
1342695452096,4.01463
1342695512096,3.99643
1342695572096,4.02698
1342695632105,3.99009
1342695692105,3.98929
1342695752105,3.97735
1342695812105,3.97016
1342695872105,3.96813
1342695932105,3.94925
1342695992105,3.92806
1342696052105,3.93851
1342696112105,3.94839
1342696172105,3.89813
1342696232105,3.94833
1342696292105,3.91111
1342696352105,3.89756
1342696412105,3.90101
1342696472105,3.91509
1342696532105,3.86229
1342696592105,3.92994
1342696652105,3.91707
1342696712105,3.90585
1342696772105,3.90424
1342696832105,3.99684
1342696892105,3.90550
1342696952105,3.90765
1342697012105,3.90391
1342697072105,3.86719
1342697132105,3.86158
1342697192105,3.87825
1342697252105,3.88455
1342697312105,3.87095
1342697372105,3.88816
1342697432105,3.87743
1342697492105,3.82875
1342697552105,3.83737
1342697612105,3.87997
1342697672105,3.86408
1342697732105,3.87804
1342697792105,3.87657
1342697852105,3.85381
1342697912105,3.83469
1342697972105,3.84923
1342698032105,3.82620
1342698092105,3.82746
1342698152105,3.81778
1342698212105,3.80340
1342698272105,3.80829
1342698332105,3.82376
1342698392105,3.82956
1342698452105,3.83239
1342698512105,3.80435
1342698572105,3.85039
1342698632105,3.85936
1342698692105,3.82760
1342698752105,3.85609
1342698812105,3.81072
1342698872105,3.80135
1342698932105,3.80872
1342698992105,3.79910
1342699052105,3.77749
1342699112105,3.79725
1342699172105,3.81796
1342699232114,3.79283
1342699292114,3.81695
1342699352114,3.75851
1342699412114,3.80195
1342699472114,3.75609
1342699532114,3.78187
1342699592114,3.77714
1342699652114,3.77058
1342699712114,3.79017
1342699772114,3.81240
1342699832114,3.78320
1342699892114,3.79658
1342699952114,3.73952
1342700012114,3.76474
1342700072114,3.77889
1342700132114,3.75606
1342700192114,3.80995
1342700252114,3.77996
1342700312114,3.76451
1342700372114,3.80653
1342700432114,3.80800
1342700492114,3.78279
1342700552114,3.80501
1342700612114,3.77381
1342700672114,3.78771
1342700732114,3.75316
1342700792114,3.79932
1342700852114,3.80252
1342700912114,3.80853
1342700972114,3.75871
1342701032114,3.76610
1342701092114,3.75081
1342701152114,3.72682
1342701212114,3.77636
1342701272114,3.76340
1342701332114,3.76860
1342701392114,3.77141
1342701452114,3.76362
1342701512114,3.73058
1342701572114,3.82127
1342701632114,3.76141
1342701692114,3.71095
1342701752114,3.73258
1342701812114,3.70752
1342701872114,3.73630
1342701932114,3.75553
1342701992114,3.71692
1342702052114,3.70932
1342702112114,3.77906
1342702172114,3.70688
1342702232114,3.73200
1342702292114,3.73548
1342702352114,3.73737
1342702412114,3.73074
1342702472114,3.73333
1342702532114,3.68904
1342702592114,3.72329
1342702652114,3.66915
1342702712114,3.69299
1342702772114,3.67732
1342702832124,3.63854
1342702892124,3.68177
1342702952124,3.69561
1342703012124,3.67919
1342703072124,3.62612
1342703132124,3.69742
1342703192124,3.66053
1342703252124,3.69130
1342703312124,3.65786
1342703372124,3.68115
1342703432124,3.68277
1342703492124,3.66112
1342703552124,3.68406
1342703612124,3.67237
1342703672124,3.64701
1342703732124,3.68743
1342703792124,3.68979
1342703852124,3.66578
1342703912124,3.68843
1342703972124,3.67138
1342704032124,3.68568
1342704092124,3.66713
1342704152124,3.64940
1342704212124,3.61973
1342704272124,3.63406
1342704332124,3.66221
1342704392124,3.65630
1342704452124,3.71835
1342704512124,3.67773
1342704572124,3.62595
1342704632124,3.61962
1342704692124,3.64803
1342704752124,3.64337
1342704812124,3.68868
1342704872124,3.67079
1342704932124,3.64279
1342704992124,3.60840
1342705052124,3.64999
1342705112124,3.62809
1342705172124,3.62761
1342705232124,3.64590
1342705292124,3.63891
1342705352124,3.61845
1342705412124,3.65604
1342705472124,3.60945
1342705532124,3.63687
1342705592124,3.63763
1342705652124,3.61662
1342705712124,3.60661
1342705772124,3.63953
1342705832124,3.62632
1342705892124,3.63697
1342705952124,3.62155
1342706012124,3.62663
1342706072124,3.59999
1342706132124,3.65797
1342706192124,3.64525
1342706252124,3.63825
1342706312124,3.62819
1342706372124,3.62308
1342706432133,3.65682
1342706492133,3.65778
1342706552133,3.62447
1342706612133,3.66982
1342706672133,3.61157
1342706732133,3.61604
1342706792133,3.65683
1342706852133,3.60976
1342706912133,3.65746
1342706972133,3.62845
1342707032133,3.63029
1342707092133,3.62470
1342707152133,3.60160
1342707212133,3.65605
1342707272133,3.64872
1342707332133,3.61782
1342707392133,3.63326
1342707452133,3.59917
1342707512133,3.61554
1342707572133,3.62087
1342707632133,3.63252
1342707692133,3.61689
1342707752133,3.61299
1342707812133,3.58909
1342707872133,3.61106
1342707932133,3.60786
1342707992133,3.60170
1342708052133,3.56630
1342708112133,3.61947
1342708172133,3.60168
1342708232133,3.61157
1342708292133,3.60632
1342708352133,3.61766
1342708412133,3.61953
1342708472133,3.63671
1342708532133,3.59993
1342708592133,3.57789
1342708652133,3.61879
1342708712133,3.62355
1342708772133,3.60852
1342708832133,3.57733
1342708892133,3.57108
1342708952133,3.60446
1342709012133,3.57360
1342709072133,3.58131
1342709132133,3.58642
1342709192133,3.62660
1342709252133,3.57630
1342709312133,3.62430
1342709372133,3.58891
1342709432133,3.59562
1342709492133,3.60090
1342709552133,3.60595
1342709612133,3.61078
1342709672133,3.57007
1342709732133,3.60726
1342709792133,3.61773
1342709852133,3.59973
1342709912133,3.64087
1342709972133,3.57889
1342710032143,3.59343
1342710092143,3.60049
1342710152143,3.61687
1342710212143,3.59847
1342710272143,3.57558
1342710332143,3.61196
1342710392143,3.62078
1342710452143,3.58730
1342710512143,3.61203
1342710572143,3.56395
1342710632143,3.58955
1342710692143,3.60118
1342710752143,3.58281
1342710812143,3.60377
1342710872143,3.58703
1342710932143,3.57098
1342710992143,3.56984
1342711052143,3.59289
1342711112143,3.57103
1342711172143,3.58783
1342711232143,3.56817
1342711292143,3.55213
1342711352143,3.60357
1342711412143,3.57963
1342711472143,3.62781
1342711532143,3.59808
1342711592143,3.60904
1342711652143,3.58181
1342711712143,3.58491
1342711772143,3.60432
1342711832143,3.59660
1342711892143,3.58569
1342711952143,3.56989
1342712012143,3.61460
1342712072143,3.56393
1342712132143,3.59261
1342712192143,3.55260
1342712252143,3.55736
1342712312143,3.56063
1342712372143,3.54977
1342712432143,3.56274
1342712492143,3.56261
1342712552143,3.55327
1342712612143,3.56604
1342712672143,3.57302
1342712732143,3.58042
1342712792143,3.53305
1342712852143,3.57508
1342712912143,3.59517
1342712972143,3.58194
1342713032143,3.60685
1342713092143,3.54925
1342713152143,3.56734
1342713212143,3.59393
1342713272143,3.55520
1342713332143,3.58048
1342713392143,3.60093
1342713452143,3.61231
1342713512143,3.54461
1342713572143,3.58343
1342713632153,3.56611
1342713692153,3.55451
1342713752153,3.56255
1342713812153,3.55000
1342713872153,3.56564
1342713932153,3.58321
1342713992153,3.60110
1342714052153,3.54815
1342714112153,3.55912
1342714172153,3.57502
1342714232153,3.56182
1342714292153,3.56498
1342714352153,3.54514
1342714412153,3.55189
1342714472153,3.56022
1342714532153,3.58202
1342714592153,3.58729
1342714652153,3.54960
1342714712153,3.56739
1342714772153,3.53458
1342714832153,3.58558
1342714892153,3.57514
1342714952153,3.55134
1342715012153,3.52806
1342715072153,3.54337
1342715132153,3.54413
1342715192153,3.57036
1342715252153,3.56749
1342715312153,3.54556
1342715372153,3.58105
1342715432153,3.56657
1342715492153,3.58652
1342715552153,3.58687
1342715612153,3.53797
1342715672153,3.57224
1342715732153,3.55629
1342715792153,3.54023
1342715852153,3.55422
1342715912153,3.57980
1342715972153,3.54667
1342716032153,3.54734
1342716092153,3.60319
1342716152153,3.59016
1342716212153,3.59677
1342716272153,3.55458
1342716332153,3.62443
1342716392153,3.56226
1342716452153,3.57152
1342716512153,3.55276
1342716572153,3.56583
1342716632153,3.53558
1342716692153,3.53909
1342716752153,3.56338
1342716812153,3.56641
1342716872153,3.56613
1342716932153,3.52757
1342716992153,3.57081
1342717052153,3.56835
1342717112153,3.54591
1342717172153,3.55673
1342717232163,3.52228
1342717292163,3.53789
1342717352163,3.53949
1342717412163,3.53217
1342717472163,3.58596
1342717532163,3.54781
1342717592163,3.56170
1342717652163,3.51387
1342717712163,3.53734
1342717772163,3.55723
1342717832163,3.56233
1342717892163,3.54690
1342717952163,3.58060
1342718012163,3.52836
1342718072163,3.52073
1342718132163,3.55154
1342718192163,3.55852
1342718252163,3.55981
1342718312163,3.57069
1342718372163,3.55172
1342718432163,3.58538
1342718492163,3.55397
1342718552163,3.58847
1342718612163,3.52581
1342718672163,3.54869
1342718732163,3.58390
1342718792163,3.53483
1342718852163,3.57446
1342718912163,3.54398
1342718972163,3.52620
1342719032163,3.58319
1342719092163,3.55759
1342719152163,3.51770
1342719212163,3.59793
1342719272163,3.52775
1342719332163,3.54533
1342719392163,3.58046
1342719452163,3.52160
1342719512163,3.56107
1342719572163,3.53596
1342719632163,3.54075
1342719692163,3.53853
1342719752163,3.55059
1342719812163,3.53388
1342719872163,3.56810
1342719932163,3.57602
1342719992163,3.58060
1342720052163,3.59996
1342720112163,3.58666
1342720172163,3.55322
1342720232163,3.57612
1342720292163,3.56827
1342720352163,3.56173
1342720412163,3.54656
1342720472163,3.58205
1342720532163,3.56260
1342720592163,3.58000
1342720652163,3.57024
1342720712163,3.61050
1342720772163,3.55171
1342720832173,3.57234
1342720892173,3.59388
1342720952173,3.56563
1342721012173,3.56586
1342721072174,3.59571
1342721132174,3.58432
1342721192174,3.58938
1342721252174,3.56688
1342721312174,3.61140
1342721372174,3.56040